• In Hungary
  • List of Countries
  • For 7 days
  • Water Temperature
  • Satellite Maps
  • Weather Map
  • News
  • Weather Widgets
  • user-avatar
    Login

    Hourly Weather Lebedevskiy

    Today, 23 February, Friday

    Time Temperature Precipitation Wind Pressure Humidity
    00:00 -23°C° 0 mm 2 mps 759 mmHg 99%
    01:00 -23°C° 0 mm 2 mps 759 mmHg 99%
    02:00 -23°C° 0 mm 2 mps 759 mmHg 99%
    03:00 -23°C° 0 mm 2 mps 759 mmHg 99%
    04:00 -23°C° 0 mm 2 mps 759 mmHg 99%
    05:00 -23°C° 0 mm 2 mps 759 mmHg 99%
    06:00 -24°C° 0 mm 2 mps 759 mmHg 99%
    07:00 -23°C° 0 mm 2 mps 759 mmHg 98%
    08:00 -21°C° 0 mm 2 mps 759 mmHg 97%
    09:00 -21°C° 0 mm 3 mps 759 mmHg 95%
    10:00 -19°C° 0 mm 3 mps 759 mmHg 94%
    11:00 -17°C° 0 mm 3 mps 759 mmHg 93%
    12:00 -16°C° 0 mm 3 mps 759 mmHg 91%
    13:00 -15°C° 0 mm 3 mps 759 mmHg 91%
    14:00 -14°C° 0 mm 3 mps 758 mmHg 90%
    15:00 -14°C° 0 mm 3 mps 758 mmHg 89%
    16:00 -15°C° 0 mm 3 mps 758 mmHg 91%
    17:00 -15°C° 0 mm 3 mps 758 mmHg 93%
    18:00 -15°C° 0 mm 2 mps 758 mmHg 95%
    19:00 -16°C° 0 mm 2 mps 758 mmHg 95%
    20:00 -16°C° 0 mm 2 mps 758 mmHg 96%
    21:00 -17°C° 0 mm 2 mps 758 mmHg 97%
    22:00 -18°C° 0 mm 2 mps 758 mmHg 97%
    23:00 -18°C° 0 mm 2 mps 758 mmHg 97%

    Tomorrow, 24 February, Saturday

    Time Temperature Precipitation Wind Pressure Humidity
    00:00 -19°C° 0 mm 2 mps 759 mmHg 98%
    01:00 -19°C° 0 mm 2 mps 759 mmHg 98%
    02:00 -20°C° 0 mm 2 mps 759 mmHg 98%
    03:00 -20°C° 0 mm 2 mps 759 mmHg 99%
    04:00 -20°C° 0 mm 2 mps 759 mmHg 99%
    05:00 -21°C° 0 mm 2 mps 759 mmHg 99%
    06:00 -21°C° 0 mm 2 mps 759 mmHg 99%
    07:00 -21°C° 0 mm 2 mps 760 mmHg 98%
    08:00 -20°C° 0 mm 2 mps 760 mmHg 97%
    09:00 -20°C° 0 mm 2 mps 760 mmHg 97%
    10:00 -19°C° 0 mm 2 mps 760 mmHg 94%
    11:00 -17°C° 0 mm 2 mps 761 mmHg 92%
    12:00 -16°C° 0 mm 2 mps 761 mmHg 89%
    13:00 -16°C° 0 mm 2 mps 761 mmHg 88%
    14:00 -16°C° 0 mm 2 mps 761 mmHg 88%
    15:00 -16°C° 0 mm 2 mps 761 mmHg 87%
    16:00 -17°C° 0 mm 2 mps 761 mmHg 90%
    17:00 -17°C° 0 mm 1 mps 761 mmHg 92%
    18:00 -18°C° 0 mm 1 mps 761 mmHg 95%
    19:00 -19°C° 0 mm 1 mps 761 mmHg 96%
    20:00 -20°C° 0 mm 1 mps 761 mmHg 96%
    21:00 -21°C° 0 mm 1 mps 761 mmHg 97%
    22:00 -21°C° 0 mm 1 mps 761 mmHg 97%
    23:00 -22°C° 0 mm 1 mps 761 mmHg 97%

    Day after tomorrow, 25 February, Sunday

    Time Temperature Precipitation Wind Pressure Humidity
    00:00 -23°C° 0 mm 1 mps 761 mmHg 97%
    01:00 -23°C° 0 mm 1 mps 761 mmHg 97%
    02:00 -24°C° 0 mm 1 mps 761 mmHg 97%
    03:00 -24°C° 0 mm 1 mps 761 mmHg 98%
    04:00 -24°C° 0 mm 1 mps 761 mmHg 98%
    05:00 -25°C° 0 mm 1 mps 761 mmHg 98%
    06:00 -25°C° 0 mm 1 mps 761 mmHg 98%
    07:00 -24°C° 0 mm 1 mps 761 mmHg 97%
    08:00 -23°C° 0 mm 1 mps 761 mmHg 96%
    09:00 -22°C° 0 mm 1 mps 761 mmHg 95%
    10:00 -20°C° 0 mm 1 mps 761 mmHg 92%
    11:00 -19°C° 0 mm 1 mps 761 mmHg 89%
    12:00 -17°C° 0 mm 1 mps 761 mmHg 86%
    13:00 -17°C° 0 mm 1 mps 760 mmHg 86%
    14:00 -16°C° 0 mm 1 mps 760 mmHg 85%
    15:00 -16°C° 0 mm 1 mps 760 mmHg 85%
    16:00 -18°C° 0 mm 1 mps 760 mmHg 88%
    17:00 -20°C° 0 mm 1 mps 760 mmHg 92%
    18:00 -21°C° 0 mm 1 mps 760 mmHg 95%
    19:00 -22°C° 0 mm 1 mps 760 mmHg 95%
    20:00 -23°C° 0 mm 1 mps 760 mmHg 96%
    21:00 -23°C° 0 mm 1 mps 760 mmHg 96%
    22:00 -24°C° 0 mm 1 mps 760 mmHg 96%
    23:00 -24°C° 0 mm 1 mps 760 mmHg 96%

    26 February, Monday

    Time Temperature Precipitation Wind Pressure Humidity
    00:00 -24°C° 0 mm 1 mps 760 mmHg 96%
    01:00 -25°C° 0 mm 1 mps 760 mmHg 97%
    02:00 -25°C° 0 mm 1 mps 760 mmHg 97%
    03:00 -25°C° 0 mm 1 mps 760 mmHg 97%
    04:00 -25°C° 0 mm 1 mps 760 mmHg 97%
    05:00 -25°C° 0 mm 1 mps 760 mmHg 98%
    06:00 -28°C° 0 mm 2 mps 760 mmHg 98%
    07:00 -27°C° 0 mm 2 mps 760 mmHg 97%
    08:00 -26°C° 0 mm 2 mps 760 mmHg 97%
    09:00 -25°C° 0 mm 2 mps 760 mmHg 96%
    10:00 -24°C° 0 mm 2 mps 760 mmHg 93%
    11:00 -21°C° 0 mm 2 mps 760 mmHg 91%
    12:00 -20°C° 0 mm 2 mps 760 mmHg 89%
    13:00 -19°C° 0 mm 2 mps 760 mmHg 89%
    14:00 -19°C° 0 mm 2 mps 760 mmHg 89%
    15:00 -19°C° 0 mm 3 mps 760 mmHg 90%
    16:00 -20°C° 0 mm 2 mps 760 mmHg 92%
    17:00 -21°C° 0 mm 2 mps 760 mmHg 94%
    18:00 -23°C° 0 mm 2 mps 760 mmHg 96%
    19:00 -24°C° 0 mm 2 mps 760 mmHg 97%
    20:00 -24°C° 0 mm 2 mps 760 mmHg 97%
    21:00 -25°C° 0 mm 2 mps 760 mmHg 97%
    22:00 -25°C° 0 mm 2 mps 760 mmHg 97%
    23:00 -26°C° 0 mm 2 mps 760 mmHg 98%

    27 February, Tuesday

    Time Temperature Precipitation Wind Pressure Humidity
    00:00 -26°C° 0 mm 2 mps 760 mmHg 98%
    01:00 -26°C° 0 mm 2 mps 760 mmHg 98%
    02:00 -27°C° 0 mm 2 mps 761 mmHg 98%
    03:00 -27°C° 0 mm 2 mps 761 mmHg 98%
    04:00 -27°C° 0 mm 2 mps 761 mmHg 98%
    05:00 -28°C° 0 mm 2 mps 761 mmHg 98%
    06:00 -28°C° 0 mm 2 mps 761 mmHg 98%
    07:00 -27°C° 0 mm 2 mps 761 mmHg 97%
    08:00 -27°C° 0 mm 2 mps 761 mmHg 97%
    09:00 -26°C° 0 mm 2 mps 761 mmHg 96%
    10:00 -24°C° 0 mm 2 mps 762 mmHg 94%
    11:00 -24°C° 0 mm 3 mps 762 mmHg 93%
    12:00 -23°C° 0 mm 3 mps 762 mmHg 91%
    13:00 -23°C° 0 mm 3 mps 762 mmHg 90%
    14:00 -22°C° 0 mm 3 mps 762 mmHg 89%
    15:00 -22°C° 0 mm 3 mps 762 mmHg 88%
    16:00 -23°C° 0 mm 3 mps 763 mmHg 90%
    17:00 -23°C° 0 mm 2 mps 763 mmHg 93%
    18:00 -25°C° 0 mm 2 mps 764 mmHg 95%
    19:00 -25°C° 0 mm 2 mps 764 mmHg 95%
    20:00 -26°C° 0 mm 2 mps 764 mmHg 96%
    21:00 -27°C° 0 mm 2 mps 765 mmHg 96%
    22:00 -27°C° 0 mm 2 mps 765 mmHg 97%
    23:00 -28°C° 0 mm 2 mps 765 mmHg 97%

    28 February, Wednesday

    Time Temperature Precipitation Wind Pressure Humidity
    00:00 -28°C° 0 mm 2 mps 766 mmHg 97%
    01:00 -29°C° 0 mm 2 mps 766 mmHg 97%
    02:00 -29°C° 0 mm 2 mps 766 mmHg 97%
    03:00 -29°C° 0 mm 2 mps 767 mmHg 97%
    04:00 -30°C° 0 mm 2 mps 767 mmHg 97%
    05:00 -30°C° 0 mm 2 mps 767 mmHg 97%
    06:00 -30°C° 0 mm 2 mps 767 mmHg 97%
    07:00 -29°C° 0 mm 2 mps 768 mmHg 97%
    08:00 -28°C° 0 mm 2 mps 768 mmHg 96%
    09:00 -27°C° 0 mm 2 mps 768 mmHg 96%
    10:00 -26°C° 0 mm 2 mps 768 mmHg 93%
    11:00 -24°C° 0 mm 2 mps 768 mmHg 90%
    12:00 -21°C° 0 mm 2 mps 768 mmHg 88%
    13:00 -21°C° 0 mm 2 mps 768 mmHg 88%
    14:00 -20°C° 0 mm 2 mps 768 mmHg 87%
    15:00 -19°C° 0 mm 2 mps 767 mmHg 87%
    16:00 -19°C° 0 mm 1 mps 767 mmHg 90%
    17:00 -20°C° 0 mm 1 mps 767 mmHg 92%
    18:00 -22°C° 0 mm 1 mps 767 mmHg 95%
    19:00 -23°C° 0 mm 1 mps 767 mmHg 96%
    20:00 -23°C° 0 mm 0 mps 767 mmHg 96%
    21:00 -24°C° 0 mm 0 mps 767 mmHg 97%
    22:00 -24°C° 0 mm 0 mps 767 mmHg 97%
    23:00 -24°C° 0 mm 0 mps 767 mmHg 97%
    Show more